Regional Weather Roundup
Issued by NWS

Home | Current Version | Previous Version | Graphics & Text | Print | Product List | Glossary On
Versions: 1 2 3 4 5 6 7 8 9 10 11 12 13 14 15 16 17 18 19 20 21 22 23 24 25 26 27
000
ASUS45 KTFX 240410
RWRMT
MONTANA REGIONAL WEATHER ROUNDUP
NATIONAL WEATHER SERVICE GREAT FALLS MT
1000 PM MDT SAT JUL 23 2016

NOTE: "FAIR" INDICATES FEW OR NO CLOUDS BELOW 12000 FEET WITH NO
SIGNIFICANT WEATHER AND/OR OBSTRUCTIONS TO VISIBILITY.

MTZ001>007-043-240500-
WEST OF THE DIVIDE

CITY           SKY/WX    TMP DP  RH WIND       PRES   REMARKS
KALISPELL      CLEAR     64  44  48 N7        30.09R
MISSOULA       CLEAR     67  41  38 N6        30.12R
BUTTE          CLEAR     64  36  35 N5        30.20R
MULLAN PASS    CLEAR     50  41  71 NW5       30.26R
ANACONDA         N/A     61  37  41 CALM      30.17R
DEER LODGE       N/A     61  39  44 W6        30.18R
EUREKA           N/A     72  45  37 SW6       30.10R
HAMILTON         N/A     64  48  55 CALM      30.12R
LIBBY            N/A     63  45  51 CALM      30.13R
PLAINS           N/A     69  44  40 CALM      30.12
RONAN            N/A     62  48  60 CALM      30.16R
$$

MTZ008-052>055-240500-
SOUTHWEST MONTANA

CITY           SKY/WX    TMP DP  RH WIND       PRES   REMARKS
BOZEMAN        CLOUDY    62  42  47 N7        30.14R
DILLON         CLOUDY    62  40  44 E9        30.14R
W YELLOWSTONE  CLOUDY    55  37  50 NW3       30.27R
ENNIS          PTCLDY    68  37  32 SE7       30.21F
THREE FORKS      N/A     64  15  15 CALM      30.12R
TWIN BRIDGES     N/A     70  34  26 N10       30.12R
$$

MTZ009-010-012-014-046-048-049-054-240500-
EAST SLOPES AND CENTRAL MONTANA

CITY           SKY/WX    TMP DP  RH WIND       PRES   REMARKS
CUT BANK       CLEAR     60  43  53 W7        30.07R
GREAT FALLS    CLOUDY    68  39  34 NW7       30.06R
MALMSTROM AFB  CLOUDY    71  38  30 NW5       30.06R
HELENA         CLEAR     67  36  31 W7        30.11R
CHOTEAU          N/A     66  34  30 NW12      30.10R
$$

MTZ011-013-016-021-045-047-050-051-240500-
NORTH CENTRAL MONTANA

CITY           SKY/WX    TMP DP  RH WIND       PRES   REMARKS
HAVRE          CLEAR     64  52  64 MISG      29.99R
LEWISTOWN      CLOUDY    63  48  58 S8        30.10R
N BAR RANCH      N/A     64  45  48 W5        30.14R
CHINOOK          N/A     70  48  46 CALM      29.99R
$$

MTZ017>020-022>027-061-062-240500-
NORTHEAST MONTANA

CITY           SKY/WX    TMP DP  RH WIND       PRES   REMARKS
GLASGOW        PTCLDY    65  51  60 CALM      29.99R
JORDAN           N/A     67  49  52 NE6       30.03R
SIDNEY         PTCLDY    67  51  56 NW9       29.98R
WOLF POINT     CLEAR     63  51  65 CALM      29.99R
PLENTYWOOD       N/A     61  55  82 NW3       29.96R
POPLAR           N/A     66  52  59 W3        29.99R
$$

MTZ028>42-056>058-240500-
SOUTHCENTRAL AND SOUTHEAST MONTANA

CITY           SKY/WX    TMP DP  RH WIND       PRES   REMARKS
BAKER          CLEAR     64  50  60 CALM      30.03R
BILLINGS       LGT RAIN  74  46  36 S8        30.11R
LIVINGSTON     CLOUDY    70  37  29 NW7       30.12R
MILES CITY     CLEAR     74  47  38 NE9       30.02R
FORSYTH          N/A     73  46  38 CALM      30.03R
LAUREL           N/A     71  47  42 CALM      30.12R
ROUNDUP          N/A     69  43  39 CALM      30.00R
$$

REGIONAL REPORTS...DAKOTAS

CITY           SKY/WX    TMP DP  RH WIND       PRES   REMARKS
WILLISTON      CLEAR     65  56  72 NW10      29.95R
MINOT          CLEAR     71  57  61 W16       29.85R
DICKINSON      CLEAR     61  52  72 W7        29.97R
CROSBY           N/A     64  61  88 W12       29.93R
WATFORD CITY     N/A    N/A N/A N/A MISG        N/A
BISMARCK       CLEAR     73  56  54 NW9       29.89R
GRAND FORKS    CLEAR     67  65  93 S5        29.72R
FARGO          CLOUDY    76  71  85 NW3       29.76R
BUFFALO SD       N/A     69  43  38 N14       29.97R
RAPID CITY     CLEAR     69  41  36 N13       30.02R
$$

REGIONAL REPORTS...WYOMING/IDAHO/WASHINGTON

CITY           SKY/WX    TMP DP  RH WIND       PRES   REMARKS
GILLETTE       CLEAR     68  34  28 NE3       30.10R
SHERIDAN       CLEAR     63  41  44 W6        30.09R
BUFFALO WY     CLEAR     70  34  26 NW9       30.15R
CODY           CLOUDY    72  32  23 N12       30.16R
YELLOWSTONE LA   N/A     53  34  48 CALM      30.35R
IDAHO FALLS    CLEAR     71  31  22 SE9       30.09R
SALMON         CLEAR     64  41  42 N8        30.08R
BOISE          CLEAR     78  32  18 W3        30.04R
SPOKANE        PTCLDY    73  42  32 NE5       30.11R
$$

REGIONAL REPORTS...ALBERTA

CITY           SKY/WX    TMP DP  RH WIND       PRES   REMARKS
EDMONTON       CLEAR     61  50  67 W2        29.94R
CALGARY        PTCLDY    64  50  59 N17G23    30.02R
LETHBRIDGE     PTCLDY    68  46  45 W17G24    30.00R
MEDICINE HAT   CLOUDY    66  55  68 E8        29.97R
WATERTON GATE    N/A     63  43  48 SW10G17     N/A
MILK RIVER       N/A     59  48  67 W5          N/A
$$

REGIONAL REPORTS...SASKATCHEWAN

CITY           SKY/WX    TMP DP  RH WIND       PRES   REMARKS
SWIFT CURRENT  CLEAR     55  54  94 SW7       29.98R
REGINA         PTCLDY    59  55  88 W9        29.90R
SASKATOON      PTCLDY    61  52  72 W9        29.89R
VAL MARIE        N/A     57  52  82 SW1         N/A
ROCKGLEN         N/A     61  52  72 W7          N/A
ASSINIBOIA       N/A     59  55  88 NW3         N/A
$$




USA.gov is the U.S. government's official web portal to all federal, state and local government web resources and services.